Time,TemperatureF,DewpointF,PressureIn,WindDirection,WindDirectionDegrees,WindSpeedMPH,WindSpeedGustMPH,Humidity,HourlyPrecipIn,Conditions,Clouds,dailyrainin,SoftwareType,DateUTC
2013-07-10 00:03:00,66.4,34.1,30.25,North,0,0.0,0.0,30,0.00,,,0.00,WUHU21623XXSP,2013-07-10 07:03:00,
2013-07-10 00:08:00,66.0,34.5,30.25,ESE,112,0.0,0.0,31,0.00,,,0.00,WUHU21623XXSP,2013-07-10 07:08:00,
2013-07-10 00:13:00,65.5,34.2,30.24,ESE,112,0.0,0.0,31,0.00,,,0.00,WUHU21623XXSP,2013-07-10 07:13:00,
2013-07-10 00:20:00,64.8,33.4,30.24,ESE,112,0.0,0.0,31,0.00,,,0.00,WUHU21623XXSP,2013-07-10 07:20:00,
2013-07-10 00:27:00,64.2,32.9,30.24,ESE,112,0.0,0.0,31,0.00,,,0.00,WUHU21623XXSP,2013-07-10 07:27:00,
2013-07-10 00:32:00,64.0,32.8,30.24,ESE,112,0.0,0.0,31,0.00,,,0.00,WUHU21623XXSP,2013-07-10 07:32:00,
2013-07-10 00:38:00,63.5,32.3,30.24,East,90,0.0,0.0,31,0.00,,,0.00,WUHU21623XXSP,2013-07-10 07:38:00,
2013-07-10 00:43:00,63.1,32.7,30.24,East,90,0.0,0.0,32,0.00,,,0.00,WUHU21623XXSP,2013-07-10 07:43:00,
2013-07-10 00:48:00,63.0,32.7,30.24,SSE,157,0.0,0.0,32,0.00,,,0.00,WUHU21623XXSP,2013-07-10 07:48:00,
2013-07-10 00:53:00,62.8,32.3,30.24,South,180,0.0,0.0,32,0.00,,,0.00,WUHU21623XXSP,2013-07-10 07:53:00,
2013-07-10 00:58:00,62.4,32.0,30.23,SSE,157,0.0,0.0,32,0.00,,,0.00,WUHU21623XXSP,2013-07-10 07:58:00,
2013-07-10 01:03:00,61.9,31.5,30.23,SE,135,0.0,0.0,32,0.00,,,0.00,WUHU21623XXSP,2013-07-10 08:03:00,
2013-07-10 01:08:00,61.5,31.4,30.23,SW,225,0.0,0.0,32,0.00,,,0.00,WUHU21623XXSP,2013-07-10 08:08:00,
2013-07-10 01:13:00,61.3,31.0,30.23,WSW,247,0.0,0.0,32,0.00,,,0.00,WUHU21623XXSP,2013-07-10 08:13:00,
2013-07-10 01:18:00,61.0,30.9,30.23,West,270,0.0,0.0,33,0.00,,,0.00,WUHU21623XXSP,2013-07-10 08:18:00,
2013-07-10 01:23:00,61.0,31.4,30.23,SW,225,0.0,0.0,33,0.00,,,0.00,WUHU21623XXSP,2013-07-10 08:23:00,
2013-07-10 01:28:00,60.6,31.1,30.23,WNW,292,0.0,0.0,33,0.00,,,0.00,WUHU21623XXSP,2013-07-10 08:28:00,
2013-07-10 01:42:00,59.7,31.1,30.23,West,270,0.0,0.0,34,0.00,,,0.00,WUHU21623XXSP,2013-07-10 08:42:00,
2013-07-10 01:47:00,59.5,30.9,30.23,WSW,247,0.0,0.0,34,0.00,,,0.00,WUHU21623XXSP,2013-07-10 08:47:00,
2013-07-10 01:52:00,59.4,30.8,30.23,WSW,247,0.0,0.0,34,0.00,,,0.00,WUHU21623XXSP,2013-07-10 08:52:00,
2013-07-10 01:57:00,59.2,30.6,30.23,SSE,157,0.0,0.0,34,0.00,,,0.00,WUHU21623XXSP,2013-07-10 08:57:00,
2013-07-10 02:02:00,59.2,30.6,30.23,SSE,157,0.0,0.0,34,0.00,,,0.00,WUHU21623XXSP,2013-07-10 09:02:00,
2013-07-10 02:07:00,58.8,30.3,30.23,South,180,0.0,0.0,34,0.00,,,0.00,WUHU21623XXSP,2013-07-10 09:07:00,
2013-07-10 02:14:00,58.3,30.5,30.22,South,180,0.0,0.0,35,0.00,,,0.00,WUHU21623XXSP,2013-07-10 09:14:00,
2013-07-10 02:19:00,58.1,30.4,30.22,South,180,0.0,0.0,35,0.00,,,0.00,WUHU21623XXSP,2013-07-10 09:19:00,
2013-07-10 02:24:00,57.7,30.1,30.22,SSW,202,0.0,0.0,35,0.00,,,0.00,WUHU21623XXSP,2013-07-10 09:24:00,
2013-07-10 02:31:00,57.2,30.3,30.22,South,180,0.0,0.0,36,0.00,,,0.00,WUHU21623XXSP,2013-07-10 09:31:00,
2013-07-10 02:36:00,57.0,30.1,30.22,SE,135,0.0,0.0,36,0.00,,,0.00,WUHU21623XXSP,2013-07-10 09:36:00,
2013-07-10 02:41:00,56.8,29.9,30.22,South,180,0.0,0.0,36,0.00,,,0.00,WUHU21623XXSP,2013-07-10 09:41:00,
2013-07-10 02:46:00,56.5,29.6,30.22,South,180,0.0,0.0,36,0.00,,,0.00,WUHU21623XXSP,2013-07-10 09:46:00,
2013-07-10 02:51:00,56.1,29.3,30.22,SE,135,0.0,0.0,36,0.00,,,0.00,WUHU21623XXSP,2013-07-10 09:51:00,
2013-07-10 02:56:00,55.9,30.0,30.22,SE,135,0.0,0.0,37,0.00,,,0.00,WUHU21623XXSP,2013-07-10 09:56:00,
2013-07-10 03:01:00,55.6,29.5,30.22,SSE,157,0.0,0.0,37,0.00,,,0.00,WUHU21623XXSP,2013-07-10 10:01:00,
2013-07-10 03:06:00,55.2,29.2,30.22,South,180,0.0,0.0,37,0.00,,,0.00,WUHU21623XXSP,2013-07-10 10:06:00,
2013-07-10 03:16:00,54.7,29.4,30.22,South,180,0.0,0.0,38,0.00,,,0.00,WUHU21623XXSP,2013-07-10 10:16:00,
2013-07-10 03:21:00,54.3,29.1,30.22,East,90,0.0,0.0,38,0.00,,,0.00,WUHU21623XXSP,2013-07-10 10:21:00,
2013-07-10 03:26:00,54.3,29.1,30.22,East,90,0.0,0.0,38,0.00,,,0.00,WUHU21623XXSP,2013-07-10 10:26:00,
2013-07-10 03:31:00,54.1,28.9,30.22,South,180,0.0,0.0,38,0.00,,,0.00,WUHU21623XXSP,2013-07-10 10:31:00,
2013-07-10 03:37:00,53.8,29.3,30.22,SSE,157,0.0,0.0,39,0.00,,,0.00,WUHU21623XXSP,2013-07-10 10:37:00,
2013-07-10 03:42:00,53.4,29.0,30.22,SSE,157,0.0,0.0,39,0.00,,,0.00,WUHU21623XXSP,2013-07-10 10:42:00,
2013-07-10 03:48:00,53.4,29.0,30.22,WSW,247,0.0,0.0,39,0.00,,,0.00,WUHU21623XXSP,2013-07-10 10:48:00,
2013-07-10 03:53:00,53.2,28.8,30.22,NW,315,0.0,0.0,40,0.00,,,0.00,WUHU21623XXSP,2013-07-10 10:53:00,
2013-07-10 03:58:00,53.2,29.5,30.22,ESE,112,0.0,0.0,40,0.00,,,0.00,WUHU21623XXSP,2013-07-10 10:58:00,
2013-07-10 04:03:00,52.9,29.2,30.22,ESE,112,0.0,0.0,40,0.00,,,0.00,WUHU21623XXSP,2013-07-10 11:03:00,
2013-07-10 04:08:00,52.7,29.0,30.22,ESE,112,0.0,0.0,40,0.00,,,0.00,WUHU21623XXSP,2013-07-10 11:08:00,
2013-07-10 04:14:00,52.3,29.3,30.22,ENE,67,0.0,0.0,41,0.00,,,0.00,WUHU21623XXSP,2013-07-10 11:14:00,
2013-07-10 04:19:00,52.2,29.1,30.22,ESE,112,0.0,0.0,41,0.00,,,0.00,WUHU21623XXSP,2013-07-10 11:19:00,
2013-07-10 04:24:00,52.0,28.9,30.22,SSE,157,0.0,0.0,41,0.00,,,0.00,WUHU21623XXSP,2013-07-10 11:24:00,
2013-07-10 04:31:00,51.6,29.2,30.22,SSE,157,0.0,0.0,42,0.00,,,0.00,WUHU21623XXSP,2013-07-10 11:31:00,
2013-07-10 04:36:00,51.6,29.2,30.22,ESE,112,0.0,0.0,42,0.00,,,0.00,WUHU21623XXSP,2013-07-10 11:36:00,
2013-07-10 04:48:00,51.4,29.0,30.22,East,90,0.0,0.0,42,0.00,,,0.00,WUHU21623XXSP,2013-07-10 11:48:00,
2013-07-10 04:54:00,51.1,28.7,30.22,East,90,0.0,0.0,42,0.00,,,0.00,WUHU21623XXSP,2013-07-10 11:54:00,
2013-07-10 04:59:00,51.1,28.7,30.22,East,90,0.0,0.0,42,0.00,,,0.00,WUHU21623XXSP,2013-07-10 11:59:00,
2013-07-10 05:05:00,50.7,28.9,30.22,East,90,0.0,0.0,43,0.00,,,0.00,WUHU21623XXSP,2013-07-10 12:05:00,
2013-07-10 05:10:00,50.7,28.9,30.22,East,90,0.0,0.0,43,0.00,,,0.00,WUHU21623XXSP,2013-07-10 12:10:00,
2013-07-10 05:15:00,50.7,28.9,30.22,East,90,0.0,0.0,43,0.00,,,0.00,WUHU21623XXSP,2013-07-10 12:15:00,
2013-07-10 05:20:00,50.5,28.8,30.22,East,90,0.0,0.0,43,0.00,,,0.00,WUHU21623XXSP,2013-07-10 12:20:00,
2013-07-10 05:25:00,50.2,29.2,30.22,South,180,0.0,0.0,44,0.00,,,0.00,WUHU21623XXSP,2013-07-10 12:25:00,
2013-07-10 05:30:00,50.2,29.0,30.22,NNW,337,0.0,0.0,44,0.00,,,0.00,WUHU21623XXSP,2013-07-10 12:30:00,
2013-07-10 05:35:00,49.8,28.7,30.22,SSE,157,0.0,0.0,45,0.00,,,0.00,WUHU21623XXSP,2013-07-10 12:35:00,
2013-07-10 05:40:00,49.8,29.2,30.22,East,90,0.0,0.0,45,0.00,,,0.00,WUHU21623XXSP,2013-07-10 12:40:00,
2013-07-10 05:45:00,49.8,29.2,30.22,SSW,202,0.0,0.0,45,0.00,,,0.00,WUHU21623XXSP,2013-07-10 12:45:00,
2013-07-10 05:50:00,49.6,29.0,30.22,SSE,157,0.0,0.0,45,0.00,,,0.00,WUHU21623XXSP,2013-07-10 12:50:00,
2013-07-10 05:57:00,49.6,29.6,30.22,ESE,112,0.0,0.0,46,0.00,,,0.00,WUHU21623XXSP,2013-07-10 12:57:00,
2013-07-10 06:02:00,49.3,29.2,30.22,ESE,112,0.0,0.0,46,0.00,,,0.00,WUHU21623XXSP,2013-07-10 13:02:00,
2013-07-10 06:07:00,49.1,29.2,30.22,SE,135,0.0,0.0,46,0.00,,,0.00,WUHU21623XXSP,2013-07-10 13:07:00,
2013-07-10 06:12:00,49.1,29.1,30.22,NW,315,0.0,0.0,46,0.00,,,0.00,WUHU21623XXSP,2013-07-10 13:12:00,
2013-07-10 06:17:00,48.9,28.9,30.22,SSE,157,0.0,0.0,46,0.00,,,0.00,WUHU21623XXSP,2013-07-10 13:17:00,
2013-07-10 06:24:00,48.7,28.7,30.22,SSE,157,0.0,0.0,46,0.00,,,0.00,WUHU21623XXSP,2013-07-10 13:24:00,
2013-07-10 06:29:00,48.7,28.7,30.22,SSE,157,0.0,0.0,47,0.00,,,0.00,WUHU21623XXSP,2013-07-10 13:29:00,
2013-07-10 06:34:00,48.7,29.3,30.23,SE,135,0.0,0.0,47,0.00,,,0.00,WUHU21623XXSP,2013-07-10 13:34:00,
2013-07-10 06:41:00,48.7,29.3,30.23,South,180,0.0,0.0,47,0.00,,,0.00,WUHU21623XXSP,2013-07-10 13:41:00,
2013-07-10 06:47:00,48.9,29.4,30.22,SSW,202,0.0,0.0,47,0.00,,,0.00,WUHU21623XXSP,2013-07-10 13:47:00,
2013-07-10 06:52:00,49.3,29.8,30.23,SSE,157,0.0,0.0,47,0.00,,,0.00,WUHU21623XXSP,2013-07-10 13:52:00,
2013-07-10 06:57:00,49.6,30.1,30.23,SSW,202,0.0,0.0,47,0.00,,,0.00,WUHU21623XXSP,2013-07-10 13:57:00,
2013-07-10 07:02:00,49.6,30.1,30.23,SSW,202,0.0,0.0,47,0.00,,,0.00,WUHU21623XXSP,2013-07-10 14:02:00,
2013-07-10 07:07:00,50.7,31.6,30.23,South,180,0.0,0.0,48,0.00,,,0.00,WUHU21623XXSP,2013-07-10 14:07:00,
2013-07-10 07:12:00,50.9,31.9,30.22,SSE,157,0.0,0.0,48,0.00,,,0.00,WUHU21623XXSP,2013-07-10 14:12:00,
2013-07-10 07:17:00,51.3,32.2,30.22,South,180,0.0,0.0,48,0.00,,,0.00,WUHU21623XXSP,2013-07-10 14:17:00,
2013-07-10 07:22:00,51.6,32.4,30.22,SSW,202,0.0,0.0,48,0.00,,,0.00,WUHU21623XXSP,2013-07-10 14:22:00,
2013-07-10 07:27:00,52.0,32.3,30.22,SSE,157,0.0,0.0,47,0.00,,,0.00,WUHU21623XXSP,2013-07-10 14:27:00,
2013-07-10 07:32:00,52.3,32.6,30.22,SE,135,0.0,0.0,47,0.00,,,0.00,WUHU21623XXSP,2013-07-10 14:32:00,
2013-07-10 07:37:00,52.7,32.9,30.23,WNW,292,0.0,0.0,47,0.00,,,0.00,WUHU21623XXSP,2013-07-10 14:37:00,
2013-07-10 07:42:00,53.2,33.4,30.22,SSW,202,0.0,0.0,47,0.00,,,0.00,WUHU21623XXSP,2013-07-10 14:42:00,
2013-07-10 07:47:00,53.8,33.9,30.22,SSE,157,0.0,0.0,47,0.00,,,0.00,WUHU21623XXSP,2013-07-10 14:47:00,
2013-07-10 07:52:00,54.3,34.4,30.22,NW,315,0.0,0.0,47,0.00,,,0.00,WUHU21623XXSP,2013-07-10 14:52:00,
2013-07-10 07:57:00,54.3,34.4,30.22,NW,315,0.0,0.0,47,0.00,,,0.00,WUHU21623XXSP,2013-07-10 14:57:00,
2013-07-10 08:03:00,55.2,34.6,30.22,West,270,0.0,0.0,46,0.00,,,0.00,WUHU21623XXSP,2013-07-10 15:03:00,
2013-07-10 08:08:00,55.6,35.0,30.22,WSW,247,0.0,0.0,46,0.00,,,0.00,WUHU21623XXSP,2013-07-10 15:08:00,
2013-07-10 08:13:00,55.9,35.3,30.22,South,180,0.0,0.0,46,0.00,,,0.00,WUHU21623XXSP,2013-07-10 15:13:00,
2013-07-10 08:18:00,57.0,36.2,30.22,WNW,292,0.0,0.0,45,0.00,,,0.00,WUHU21623XXSP,2013-07-10 15:18:00,
2013-07-10 08:29:00,57.9,36.6,30.22,WNW,292,0.0,0.0,45,0.00,,,0.00,WUHU21623XXSP,2013-07-10 15:29:00,
2013-07-10 08:34:00,58.3,36.4,30.22,WNW,292,0.0,0.0,44,0.00,,,0.00,WUHU21623XXSP,2013-07-10 15:34:00,
2013-07-10 08:39:00,58.8,36.3,30.22,WNW,292,0.0,0.0,43,0.00,,,0.00,WUHU21623XXSP,2013-07-10 15:39:00,
2013-07-10 08:44:00,59.2,36.0,30.22,WNW,292,0.0,0.0,42,0.00,,,0.00,WUHU21623XXSP,2013-07-10 15:44:00,
2013-07-10 08:49:00,59.5,35.8,30.22,NNW,337,0.0,0.0,41,0.00,,,0.00,WUHU21623XXSP,2013-07-10 15:49:00,
2013-07-10 08:54:00,59.9,36.1,30.22,WNW,292,0.0,0.0,41,0.00,,,0.00,WUHU21623XXSP,2013-07-10 15:54:00,
2013-07-10 08:59:00,61.0,37.1,30.21,WNW,292,0.0,0.0,40,0.00,,,0.00,WUHU21623XXSP,2013-07-10 15:59:00,
2013-07-10 09:04:00,61.3,36.8,30.21,NW,315,0.0,0.0,40,0.00,,,0.00,WUHU21623XXSP,2013-07-10 16:04:00,
2013-07-10 09:09:00,61.9,37.3,30.21,South,180,0.0,0.0,40,0.00,,,0.00,WUHU21623XXSP,2013-07-10 16:09:00,
2013-07-10 09:14:00,62.8,37.4,30.21,NW,315,0.0,0.0,39,0.00,,,0.00,WUHU21623XXSP,2013-07-10 16:14:00,
2013-07-10 09:19:00,63.1,36.3,30.21,NW,315,0.0,0.0,37,0.00,,,0.00,WUHU21623XXSP,2013-07-10 16:19:00,
2013-07-10 09:24:00,64.2,36.5,30.20,WNW,292,0.0,0.0,36,0.00,,,0.00,WUHU21623XXSP,2013-07-10 16:24:00,
2013-07-10 09:29:00,64.9,35.7,30.20,NW,315,0.0,0.0,34,0.00,,,0.00,WUHU21623XXSP,2013-07-10 16:29:00,
2013-07-10 09:34:00,65.5,35.5,30.20,NW,315,0.0,0.0,33,0.00,,,0.00,WUHU21623XXSP,2013-07-10 16:34:00,
2013-07-10 09:39:00,66.4,36.3,30.20,WNW,292,0.0,0.0,33,0.00,,,0.00,WUHU21623XXSP,2013-07-10 16:39:00,
2013-07-10 09:46:00,67.3,37.0,30.20,NW,315,0.0,0.0,33,0.00,,,0.00,WUHU21623XXSP,2013-07-10 16:46:00,
2013-07-10 09:51:00,68.0,37.5,30.20,South,180,0.0,0.0,33,0.00,,,0.00,WUHU21623XXSP,2013-07-10 16:51:00,
2013-07-10 09:56:00,68.2,37.1,30.19,WNW,292,0.0,0.0,32,0.00,,,0.00,WUHU21623XXSP,2013-07-10 16:56:00,
2013-07-10 10:01:00,68.7,37.5,30.20,WSW,247,0.0,0.0,32,0.00,,,0.00,WUHU21623XXSP,2013-07-10 17:01:00,
2013-07-10 10:06:00,69.4,38.2,30.19,SE,135,0.0,0.0,32,0.00,,,0.00,WUHU21623XXSP,2013-07-10 17:06:00,
2013-07-10 10:11:00,70.2,38.8,30.19,WNW,292,0.0,0.0,32,0.00,,,0.00,WUHU21623XXSP,2013-07-10 17:11:00,
2013-07-10 10:18:00,70.5,37.7,30.19,South,180,0.0,0.0,30,0.00,,,0.00,WUHU21623XXSP,2013-07-10 17:18:00,
2013-07-10 10:24:00,71.4,38.5,30.18,NW,315,0.0,0.0,30,0.00,,,0.00,WUHU21623XXSP,2013-07-10 17:24:00,
2013-07-10 10:29:00,72.0,38.9,30.19,East,90,0.0,0.0,30,0.00,,,0.00,WUHU21623XXSP,2013-07-10 17:29:00,
2013-07-10 10:41:00,74.1,36.5,30.18,East,90,0.0,0.0,26,0.00,,,0.00,WUHU21623XXSP,2013-07-10 17:41:00,
2013-07-10 10:46:00,74.5,39.0,30.18,East,90,0.0,0.0,28,0.00,,,0.00,WUHU21623XXSP,2013-07-10 17:46:00,
2013-07-10 10:51:00,75.0,36.4,30.18,NE,45,0.0,0.0,25,0.00,,,0.00,WUHU21623XXSP,2013-07-10 17:51:00,
2013-07-10 10:56:00,75.7,37.0,30.18,SSE,157,0.0,0.0,27,0.00,,,0.00,WUHU21623XXSP,2013-07-10 17:56:00,
2013-07-10 11:03:00,76.8,41.1,30.18,SE,135,0.0,0.0,28,0.00,,,0.00,WUHU21623XXSP,2013-07-10 18:03:00,
2013-07-10 11:08:00,77.5,41.7,30.18,SW,225,0.0,0.0,28,0.00,,,0.00,WUHU21623XXSP,2013-07-10 18:08:00,
2013-07-10 11:13:00,78.1,37.9,30.17,ENE,67,0.0,0.0,24,0.00,,,0.00,WUHU21623XXSP,2013-07-10 18:13:00,
2013-07-10 11:18:00,78.6,38.4,30.17,East,90,0.0,0.0,24,0.00,,,0.00,WUHU21623XXSP,2013-07-10 18:18:00,
2013-07-10 11:24:00,79.9,39.5,30.17,East,90,0.0,0.0,24,0.00,,,0.00,WUHU21623XXSP,2013-07-10 18:24:00,
2013-07-10 11:29:00,80.4,40.0,30.17,SSE,157,0.0,0.0,24,0.00,,,0.00,WUHU21623XXSP,2013-07-10 18:29:00,
2013-07-10 11:34:00,81.0,42.5,30.17,South,180,0.0,0.0,26,0.00,,,0.00,WUHU21623XXSP,2013-07-10 18:34:00,
2013-07-10 11:39:00,81.5,39.8,30.17,SSE,157,1.6,1.6,23,0.00,,,0.00,WUHU21623XXSP,2013-07-10 18:39:00,
2013-07-10 11:44:00,82.0,41.1,30.17,South,180,0.0,1.6,24,0.00,,,0.00,WUHU21623XXSP,2013-07-10 18:44:00,
2013-07-10 11:54:00,82.6,42.8,30.17,SSE,157,0.0,0.0,25,0.00,,,0.00,WUHU21623XXSP,2013-07-10 18:54:00,
2013-07-10 12:09:00,84.0,40.8,30.16,South,180,0.0,0.0,22,0.00,,,0.00,WUHU21623XXSP,2013-07-10 19:09:00,
2013-07-10 12:14:00,84.4,42.2,30.16,NNE,22,0.0,0.0,23,0.00,,,0.00,WUHU21623XXSP,2013-07-10 19:14:00,
2013-07-10 12:19:00,84.9,41.5,30.16,WSW,247,0.0,0.0,22,0.00,,,0.00,WUHU21623XXSP,2013-07-10 19:19:00,
2013-07-10 12:24:00,85.6,41.8,30.16,WNW,292,0.7,0.7,21,0.00,,,0.00,WUHU21623XXSP,2013-07-10 19:24:00,
2013-07-10 12:29:00,86.2,42.6,30.16,West,270,0.0,0.7,22,0.00,,,0.00,WUHU21623XXSP,2013-07-10 19:29:00,
2013-07-10 12:34:00,86.5,42.7,30.16,WNW,292,0.0,0.0,21,0.00,,,0.00,WUHU21623XXSP,2013-07-10 19:34:00,
2013-07-10 12:41:00,87.4,42.6,30.16,South,180,0.0,3.1,21,0.00,,,0.00,WUHU21623XXSP,2013-07-10 19:41:00,
2013-07-10 12:46:00,87.4,42.6,30.15,SE,135,0.0,0.0,21,0.00,,,0.00,WUHU21623XXSP,2013-07-10 19:46:00,
2013-07-10 12:52:00,87.6,42.8,30.15,SSW,202,2.5,2.9,21,0.00,,,0.00,WUHU21623XXSP,2013-07-10 19:52:00,
2013-07-10 12:57:00,87.6,42.8,30.15,SE,135,3.8,3.8,21,0.00,,,0.00,WUHU21623XXSP,2013-07-10 19:57:00,
2013-07-10 13:05:00,88.0,43.1,30.15,South,180,11.6,11.6,21,0.00,,,0.00,WUHU21623XXSP,2013-07-10 20:05:00,
2013-07-10 13:10:00,88.0,42.0,30.15,SSE,157,0.7,11.6,20,0.00,,,0.00,WUHU21623XXSP,2013-07-10 20:10:00,
2013-07-10 13:15:00,88.2,40.4,30.15,SW,225,10.3,10.3,19,0.00,,,0.00,WUHU21623XXSP,2013-07-10 20:15:00,
2013-07-10 13:22:00,88.0,40.3,30.15,SSE,157,12.1,12.1,19,0.00,,,0.00,WUHU21623XXSP,2013-07-10 20:22:00,
2013-07-10 13:27:00,88.0,40.3,30.15,North,0,0.0,12.1,19,0.00,,,0.00,WUHU21623XXSP,2013-07-10 20:27:00,
2013-07-10 13:37:00,88.2,40.4,30.15,SSE,157,12.1,12.1,19,0.00,,,0.00,WUHU21623XXSP,2013-07-10 20:37:00,
2013-07-10 13:42:00,88.2,40.4,30.15,SSE,157,12.1,12.1,19,0.00,,,0.00,WUHU21623XXSP,2013-07-10 20:42:00,
2013-07-10 13:50:00,88.7,40.9,30.15,SSE,157,4.7,9.6,19,0.00,,,0.00,WUHU21623XXSP,2013-07-10 20:50:00,
2013-07-10 13:55:00,88.7,40.9,30.15,SSE,157,0.9,4.7,19,0.00,,,0.00,WUHU21623XXSP,2013-07-10 20:55:00,
2013-07-10 14:00:00,88.5,40.7,30.15,East,90,2.7,2.7,19,0.00,,,0.00,WUHU21623XXSP,2013-07-10 21:00:00,
2013-07-10 14:05:00,88.5,40.7,30.15,South,180,19.0,19.0,19,0.00,,,0.00,WUHU21623XXSP,2013-07-10 21:05:00,
2013-07-10 14:13:00,88.3,40.6,30.15,NW,315,0.0,19.0,19,0.00,,,0.00,WUHU21623XXSP,2013-07-10 21:13:00,
2013-07-10 14:18:00,88.3,40.6,30.15,South,180,0.0,0.0,19,0.00,,,0.00,WUHU21623XXSP,2013-07-10 21:18:00,
2013-07-10 14:23:00,88.3,40.6,30.15,SSE,157,8.1,8.1,19,0.00,,,0.00,WUHU21623XXSP,2013-07-10 21:23:00,
2013-07-10 14:32:00,88.7,42.6,30.15,SSW,202,4.3,4.3,20,0.00,,,0.00,WUHU21623XXSP,2013-07-10 21:32:00,
2013-07-10 14:39:00,88.5,42.5,30.15,SSE,157,12.8,12.8,20,0.00,,,0.00,WUHU21623XXSP,2013-07-10 21:39:00,
2013-07-10 14:44:00,88.2,42.2,30.14,SE,135,0.0,12.8,20,0.00,,,0.00,WUHU21623XXSP,2013-07-10 21:44:00,
2013-07-10 14:49:00,87.6,41.7,30.15,SSE,157,0.0,0.0,20,0.00,,,0.00,WUHU21623XXSP,2013-07-10 21:49:00,
2013-07-10 14:54:00,87.4,41.6,30.15,South,180,4.3,4.3,20,0.00,,,0.00,WUHU21623XXSP,2013-07-10 21:54:00,
2013-07-10 14:59:00,87.4,41.6,30.15,South,180,4.3,4.3,20,0.00,,,0.00,WUHU21623XXSP,2013-07-10 21:59:00,
2013-07-10 15:04:00,87.4,41.6,30.15,SE,135,0.0,4.3,20,0.00,,,0.00,WUHU21623XXSP,2013-07-10 22:04:00,
2013-07-10 15:09:00,87.6,41.7,30.14,South,180,4.9,4.9,20,0.00,,,0.00,WUHU21623XXSP,2013-07-10 22:09:00,
2013-07-10 15:14:00,87.6,41.7,30.14,South,180,9.4,9.4,20,0.00,,,0.00,WUHU21623XXSP,2013-07-10 22:14:00,
2013-07-10 15:19:00,88.0,42.0,30.14,SSW,202,8.5,9.4,20,0.00,,,0.00,WUHU21623XXSP,2013-07-10 22:19:00,
2013-07-10 15:24:00,88.3,42.3,30.14,SSE,157,8.1,14.3,20,0.00,,,0.00,WUHU21623XXSP,2013-07-10 22:24:00,
2013-07-10 15:29:00,88.5,42.5,30.14,South,180,0.9,14.3,20,0.00,,,0.00,WUHU21623XXSP,2013-07-10 22:29:00,
2013-07-10 15:34:00,88.5,42.5,30.14,South,180,14.3,14.3,20,0.00,,,0.00,WUHU21623XXSP,2013-07-10 22:34:00,
2013-07-10 15:39:00,88.5,42.5,30.14,South,180,6.9,14.3,20,0.00,,,0.00,WUHU21623XXSP,2013-07-10 22:39:00,
2013-07-10 15:44:00,88.7,42.6,30.14,SE,135,8.9,8.9,20,0.00,,,0.00,WUHU21623XXSP,2013-07-10 22:44:00,
2013-07-10 15:49:00,88.5,42.6,30.14,SE,135,8.9,9.4,20,0.00,,,0.00,WUHU21623XXSP,2013-07-10 22:49:00,
2013-07-10 15:54:00,88.5,42.5,30.14,South,180,8.1,9.4,20,0.00,,,0.00,WUHU21623XXSP,2013-07-10 22:54:00,
2013-07-10 15:59:00,88.5,42.5,30.13,SSW,202,3.1,8.1,20,0.00,,,0.00,WUHU21623XXSP,2013-07-10 22:59:00,
2013-07-10 16:04:00,88.2,42.2,30.13,SSE,157,17.0,17.0,20,0.00,,,0.00,WUHU21623XXSP,2013-07-10 23:04:00,
2013-07-10 16:09:00,88.2,42.2,30.14,South,180,13.0,17.0,20,0.00,,,0.00,WUHU21623XXSP,2013-07-10 23:09:00,
2013-07-10 16:14:00,88.0,42.0,30.14,SSW,202,2.9,13.0,20,0.00,,,0.00,WUHU21623XXSP,2013-07-10 23:14:00,
2013-07-10 16:19:00,88.0,42.0,30.13,South,180,15.9,15.9,20,0.00,,,0.00,WUHU21623XXSP,2013-07-10 23:19:00,
2013-07-10 16:24:00,87.6,41.7,30.13,ESE,112,5.1,15.9,20,0.00,,,0.00,WUHU21623XXSP,2013-07-10 23:24:00,
2013-07-10 16:29:00,87.6,41.7,30.13,SSE,157,5.1,11.9,20,0.00,,,0.00,WUHU21623XXSP,2013-07-10 23:29:00,
2013-07-10 16:34:00,87.4,41.6,30.13,SSE,157,4.7,11.9,20,0.00,,,0.00,WUHU21623XXSP,2013-07-10 23:34:00,
2013-07-10 16:39:00,87.3,42.5,30.13,SE,135,8.3,8.3,21,0.00,,,0.00,WUHU21623XXSP,2013-07-10 23:39:00,
2013-07-10 16:45:00,86.7,40.9,30.12,SSE,157,12.3,12.3,20,0.00,,,0.00,WUHU21623XXSP,2013-07-10 23:45:00,
2013-07-10 16:50:00,86.5,40.8,30.13,South,180,13.2,13.2,20,0.00,,,0.00,WUHU21623XXSP,2013-07-10 23:50:00,
2013-07-10 16:55:00,86.2,40.4,30.13,SE,135,7.8,13.2,20,0.00,,,0.00,WUHU21623XXSP,2013-07-10 23:55:00,
2013-07-10 17:00:00,85.8,40.1,30.12,South,180,0.0,7.8,20,0.00,,,0.00,WUHU21623XXSP,2013-07-11 00:00:00,
2013-07-10 17:05:00,85.8,40.1,30.12,South,180,12.1,12.1,20,0.00,,,0.00,WUHU21623XXSP,2013-07-11 00:05:00,
2013-07-10 17:10:00,85.6,40.0,30.13,SE,135,3.8,12.1,20,0.00,,,0.00,WUHU21623XXSP,2013-07-11 00:10:00,
2013-07-10 17:15:00,85.1,39.6,30.13,ESE,112,14.5,14.5,20,0.00,,,0.00,WUHU21623XXSP,2013-07-11 00:15:00,
2013-07-10 17:20:00,84.9,39.6,30.13,South,180,3.8,14.5,20,0.00,,,0.00,WUHU21623XXSP,2013-07-11 00:20:00,
2013-07-10 17:25:00,84.7,39.3,30.13,SSE,157,6.9,7.4,20,0.00,,,0.00,WUHU21623XXSP,2013-07-11 00:25:00,
2013-07-10 17:30:00,84.7,39.3,30.13,West,270,13.9,13.9,20,0.00,,,0.00,WUHU21623XXSP,2013-07-11 00:30:00,
2013-07-10 17:35:00,84.7,40.3,30.13,SSW,202,10.7,13.9,21,0.00,,,0.00,WUHU21623XXSP,2013-07-11 00:35:00,
2013-07-10 17:40:00,84.9,40.5,30.13,SSE,157,1.8,11.4,21,0.00,,,0.00,WUHU21623XXSP,2013-07-11 00:40:00,
2013-07-10 17:45:00,85.1,40.6,30.13,SSE,157,2.2,11.4,21,0.00,,,0.00,WUHU21623XXSP,2013-07-11 00:45:00,
2013-07-10 17:51:00,85.3,40.8,30.13,SE,135,0.7,2.2,21,0.00,,,0.00,WUHU21623XXSP,2013-07-11 00:51:00,
2013-07-10 17:56:00,85.3,40.8,30.13,ENE,67,1.1,1.1,21,0.00,,,0.00,WUHU21623XXSP,2013-07-11 00:56:00,
2013-07-10 18:01:00,85.3,40.8,30.13,ENE,67,1.1,1.1,21,0.00,,,0.00,WUHU21623XXSP,2013-07-11 01:01:00,
2013-07-10 18:06:00,85.3,40.8,30.13,SSE,157,11.2,11.2,21,0.00,,,0.00,WUHU21623XXSP,2013-07-11 01:06:00,
2013-07-10 18:11:00,85.3,40.8,30.13,SE,135,4.0,11.2,21,0.00,,,0.00,WUHU21623XXSP,2013-07-11 01:11:00,
2013-07-10 18:17:00,85.1,40.6,30.13,South,180,9.2,9.2,21,0.00,,,0.00,WUHU21623XXSP,2013-07-11 01:17:00,
2013-07-10 18:22:00,85.1,40.6,30.13,ESE,112,0.0,9.2,21,0.00,,,0.00,WUHU21623XXSP,2013-07-11 01:22:00,
2013-07-10 18:27:00,85.1,40.6,30.13,SSE,157,5.8,5.8,21,0.00,,,0.00,WUHU21623XXSP,2013-07-11 01:27:00,
2013-07-10 18:34:00,84.7,40.3,30.13,SSE,157,3.8,3.8,21,0.00,,,0.00,WUHU21623XXSP,2013-07-11 01:34:00,
2013-07-10 18:40:00,84.4,40.0,30.13,SSE,157,3.6,3.8,21,0.00,,,0.00,WUHU21623XXSP,2013-07-11 01:40:00,
2013-07-10 18:45:00,84.4,40.0,30.12,ESE,112,0.0,3.6,21,0.00,,,0.00,WUHU21623XXSP,2013-07-11 01:45:00,
2013-07-10 18:50:00,84.0,39.7,30.13,South,180,5.6,5.6,21,0.00,,,0.00,WUHU21623XXSP,2013-07-11 01:50:00,
2013-07-10 18:55:00,83.8,39.6,30.13,ESE,112,3.6,5.6,21,0.00,,,0.00,WUHU21623XXSP,2013-07-11 01:55:00,
2013-07-10 19:00:00,83.8,39.6,30.13,SSE,157,5.8,5.8,21,0.00,,,0.00,WUHU21623XXSP,2013-07-11 02:00:00,
2013-07-10 19:05:00,83.5,39.3,30.12,ESE,112,0.0,5.8,21,0.00,,,0.00,WUHU21623XXSP,2013-07-11 02:05:00,
2013-07-10 19:12:00,83.5,39.3,30.13,SE,135,1.1,3.8,21,0.00,,,0.00,WUHU21623XXSP,2013-07-11 02:12:00,
2013-07-10 19:17:00,83.3,39.2,30.13,SSE,157,0.7,1.1,21,0.00,,,0.00,WUHU21623XXSP,2013-07-11 02:17:00,
2013-07-10 19:22:00,83.1,39.0,30.13,ESE,112,2.9,2.9,21,0.00,,,0.00,WUHU21623XXSP,2013-07-11 02:22:00,
2013-07-10 19:27:00,82.9,38.9,30.13,South,180,0.0,2.9,21,0.00,,,0.00,WUHU21623XXSP,2013-07-11 02:27:00,
2013-07-10 19:33:00,82.8,39.8,30.13,SSE,157,0.0,0.0,22,0.00,,,0.00,WUHU21623XXSP,2013-07-11 02:33:00,
2013-07-10 19:38:00,82.6,39.6,30.13,South,180,1.3,1.3,22,0.00,,,0.00,WUHU21623XXSP,2013-07-11 02:38:00,
2013-07-10 19:44:00,82.2,39.3,30.12,SSE,157,0.0,1.3,22,0.00,,,0.00,WUHU21623XXSP,2013-07-11 02:44:00,
2013-07-10 19:50:00,82.2,39.3,30.13,SE,135,0.0,0.0,22,0.00,,,0.00,WUHU21623XXSP,2013-07-11 02:50:00,
2013-07-10 20:00:00,81.7,38.9,30.13,SE,135,0.0,0.0,22,0.00,,,0.00,WUHU21623XXSP,2013-07-11 03:00:00,
2013-07-10 20:06:00,81.3,38.6,30.13,ESE,112,0.0,0.0,22,0.00,,,0.00,WUHU21623XXSP,2013-07-11 03:06:00,
2013-07-10 20:07:00,81.3,38.6,30.13,ESE,112,0.0,0.0,22,0.00,,,0.00,WUHU21623XXSP,2013-07-11 03:07:00,
2013-07-10 20:12:00,81.3,38.6,30.13,ESE,112,0.0,0.0,22,0.00,,,0.00,WUHU21623XXSP,2013-07-11 03:12:00,
2013-07-10 20:17:00,81.1,38.5,30.13,SE,135,0.0,0.0,22,0.00,,,0.00,WUHU21623XXSP,2013-07-11 03:17:00,
2013-07-10 20:22:00,81.0,39.4,30.13,SE,135,0.0,0.0,23,0.00,,,0.00,WUHU21623XXSP,2013-07-11 03:22:00,
2013-07-10 20:27:00,80.8,39.2,30.13,ESE,112,0.0,0.0,23,0.00,,,0.00,WUHU21623XXSP,2013-07-11 03:27:00,
2013-07-10 20:32:00,80.4,38.9,30.13,SSE,157,0.0,0.0,23,0.00,,,0.00,WUHU21623XXSP,2013-07-11 03:32:00,
2013-07-10 20:38:00,80.2,38.8,30.13,SE,135,0.0,0.0,23,0.00,,,0.00,WUHU21623XXSP,2013-07-11 03:38:00,
2013-07-10 20:43:00,79.9,38.4,30.13,SSE,157,0.0,0.0,23,0.00,,,0.00,WUHU21623XXSP,2013-07-11 03:43:00,
2013-07-10 20:48:00,79.7,38.3,30.13,SSE,157,0.0,0.0,23,0.00,,,0.00,WUHU21623XXSP,2013-07-11 03:48:00,
2013-07-10 20:53:00,79.5,38.1,30.13,SSE,157,0.0,0.0,23,0.00,,,0.00,WUHU21623XXSP,2013-07-11 03:53:00,
2013-07-10 20:58:00,79.3,38.0,30.13,SSE,157,0.0,0.0,23,0.00,,,0.00,WUHU21623XXSP,2013-07-11 03:58:00,
2013-07-10 21:01:00,79.3,38.0,30.13,SSE,157,0.0,0.0,23,0.00,,,0.00,WUHU21623XXSP,2013-07-11 04:01:00,
2013-07-10 21:02:00,79.0,38.7,30.13,SW,225,0.0,0.0,24,0.00,,,0.00,WUHU21623XXSP,2013-07-11 04:02:00,
2013-07-10 21:07:00,78.6,38.4,30.14,SE,135,0.0,0.0,24,0.00,,,0.00,WUHU21623XXSP,2013-07-11 04:07:00,
2013-07-10 21:12:00,78.4,38.2,30.14,ESE,112,0.0,0.0,24,0.00,,,0.00,WUHU21623XXSP,2013-07-11 04:12:00,
2013-07-10 21:17:00,78.4,38.2,30.14,SSE,157,0.0,0.0,24,0.00,,,0.00,WUHU21623XXSP,2013-07-11 04:17:00,
2013-07-10 21:23:00,77.9,37.8,30.14,SE,135,0.0,0.0,24,0.00,,,0.00,WUHU21623XXSP,2013-07-11 04:23:00,
2013-07-10 21:32:00,77.5,37.5,30.14,SE,135,0.0,0.0,24,0.00,,,0.00,WUHU21623XXSP,2013-07-11 04:32:00,
2013-07-10 21:37:00,77.5,37.5,30.14,SE,135,0.0,0.0,24,0.00,,,0.00,WUHU21623XXSP,2013-07-11 04:37:00,
2013-07-10 21:42:00,77.2,37.2,30.14,SE,135,0.0,0.0,24,0.00,,,0.00,WUHU21623XXSP,2013-07-11 04:42:00,
2013-07-10 21:47:00,76.8,36.9,30.14,SSE,157,0.0,0.0,24,0.00,,,0.00,WUHU21623XXSP,2013-07-11 04:47:00,
2013-07-10 21:53:00,76.8,36.9,30.14,SSE,157,0.0,0.0,24,0.00,,,0.00,WUHU21623XXSP,2013-07-11 04:53:00,
2013-07-10 21:59:00,76.3,37.7,30.14,SSE,157,0.0,0.0,25,0.00,,,0.00,WUHU21623XXSP,2013-07-11 04:59:00,
2013-07-10 22:04:00,76.3,37.5,30.14,SE,135,0.0,0.0,25,0.00,,,0.00,WUHU21623XXSP,2013-07-11 05:04:00,
2013-07-10 22:09:00,76.1,37.3,30.14,SE,135,0.0,0.0,25,0.00,,,0.00,WUHU21623XXSP,2013-07-11 05:09:00,
2013-07-10 22:14:00,75.7,37.0,30.14,SE,135,0.0,0.0,25,0.00,,,0.00,WUHU21623XXSP,2013-07-11 05:14:00,
2013-07-10 22:21:00,75.4,36.7,30.14,SE,135,0.0,0.0,25,0.00,,,0.00,WUHU21623XXSP,2013-07-11 05:21:00,
2013-07-10 22:26:00,75.4,36.7,30.14,SE,135,0.0,0.0,25,0.00,,,0.00,WUHU21623XXSP,2013-07-11 05:26:00,
2013-07-10 22:31:00,74.8,38.3,30.13,SE,135,0.0,0.0,27,0.00,,,0.00,WUHU21623XXSP,2013-07-11 05:31:00,
2013-07-10 22:36:00,74.7,38.2,30.13,SE,135,0.0,0.0,27,0.00,,,0.00,WUHU21623XXSP,2013-07-11 05:36:00,
2013-07-10 22:41:00,74.3,38.9,30.13,ESE,112,0.0,0.0,28,0.00,,,0.00,WUHU21623XXSP,2013-07-11 05:41:00,
2013-07-10 22:51:00,73.4,39.1,30.13,East,90,0.0,0.0,29,0.00,,,0.00,WUHU21623XXSP,2013-07-11 05:51:00,
2013-07-10 22:59:00,73.0,39.8,30.13,SE,135,0.0,0.0,30,0.00,,,0.00,WUHU21623XXSP,2013-07-11 05:59:00,
2013-07-10 23:04:00,72.9,39.8,30.13,SSE,157,0.0,0.0,30,0.00,,,0.00,WUHU21623XXSP,2013-07-11 06:04:00,
2013-07-10 23:09:00,72.7,39.5,30.13,ESE,112,0.0,0.0,30,0.00,,,0.00,WUHU21623XXSP,2013-07-11 06:09:00,
2013-07-10 23:15:00,72.7,39.5,30.12,SE,135,0.0,0.0,30,0.00,,,0.00,WUHU21623XXSP,2013-07-11 06:15:00,
2013-07-10 23:20:00,72.7,39.5,30.12,SE,135,0.0,0.0,30,0.00,,,0.00,WUHU21623XXSP,2013-07-11 06:20:00,
2013-07-10 23:25:00,72.7,39.5,30.13,ESE,112,0.0,0.0,30,0.00,,,0.00,WUHU21623XXSP,2013-07-11 06:25:00,
2013-07-10 23:30:00,72.7,39.5,30.12,ESE,112,0.0,0.0,30,0.00,,,0.00,WUHU21623XXSP,2013-07-11 06:30:00,
2013-07-10 23:36:00,72.7,39.5,30.12,SE,135,0.0,0.0,30,0.00,,,0.00,WUHU21623XXSP,2013-07-11 06:36:00,
2013-07-10 23:41:00,72.7,39.5,30.12,SSE,157,0.0,0.0,30,0.00,,,0.00,WUHU21623XXSP,2013-07-11 06:41:00,
2013-07-10 23:46:00,72.7,39.5,30.12,SE,135,0.0,0.0,30,0.00,,,0.00,WUHU21623XXSP,2013-07-11 06:46:00,
2013-07-10 23:51:00,72.7,39.5,30.12,ENE,67,0.0,0.0,30,0.00,,,0.00,WUHU21623XXSP,2013-07-11 06:51:00,
2013-07-10 23:56:00,72.7,39.5,30.12,ENE,67,0.0,0.0,30,0.00,,,0.00,WUHU21623XXSP,2013-07-11 06:56:00,